Location: Newark
(54.8972°N, 99.8189°W)
Time: 06:09:05
(UTC+00:00)

Tiros 1 despin weight - All Passes

Search period start: 20 November 2019 00:00
Search period end: 30 November 2019 00:00
Orbit: 594 x 642 km, 48.2° (Epoch: 18 November)

Date Brightness Start Highest point End Pass type
(mag) Time Alt. Az. Time Alt. Az. Time Alt. Az.
20 Nov - 00:06:11 10° WSW 00:09:53 26° SSW 00:13:38 10° SE visible
20 Nov - 01:49:32 10° SW 01:50:22 10° SW 01:51:13 10° SSW visible
20 Nov - 19:21:13 10° S 19:23:47 15° SSE 19:26:22 10° ESE daylight
20 Nov - 21:00:32 10° SW 21:04:26 31° SSE 21:08:21 10° ESE daylight
20 Nov - 22:41:21 10° WSW 22:45:21 33° S 22:49:24 10° ESE daylight
21 Nov - 00:22:54 10° WSW 00:26:08 20° SSW 00:29:22 10° SSE visible
21 Nov - 19:36:36 10° SSW 19:39:57 21° SSE 19:43:20 10° ESE daylight
21 Nov - 21:16:44 10° WSW 21:20:45 34° S 21:24:48 10° ESE daylight
21 Nov - 22:57:49 10° WSW 23:01:40 29° SSW 23:05:33 10° SE daylight
22 Nov - 00:40:03 10° WSW 00:42:16 14° SW 00:44:30 10° S visible
22 Nov - 18:14:01 10° SSE 18:15:40 12° SE 18:17:20 10° ESE daylight
22 Nov - 19:52:27 10° SW 19:56:12 27° SSE 19:59:59 10° ESE daylight
22 Nov - 21:33:04 10° WSW 21:37:06 35° S 21:41:10 10° ESE daylight
22 Nov - 23:14:25 10° WSW 23:17:57 23° SSW 23:21:29 10° SSE visible
23 Nov - 18:28:50 10° SSW 18:31:47 18° SSE 18:34:46 10° ESE daylight
23 Nov - 20:08:34 10° SW 20:12:30 32° S 20:16:29 10° ESE daylight
23 Nov - 21:49:29 10° WSW 21:53:26 32° S 21:57:25 10° SE daylight
23 Nov - 23:31:16 10° WSW 23:34:08 17° SSW 23:37:01 10° S visible
24 Nov - 18:44:27 10° SSW 18:48:00 24° SSE 18:51:33 10° ESE daylight
24 Nov - 20:24:50 10° WSW 20:28:51 35° S 20:32:54 10° ESE daylight
24 Nov - 22:06:01 10° WSW 22:09:44 26° SSW 22:13:29 10° SE daylight
24 Nov - 23:48:57 10° SW 23:50:15 11° SW 23:51:32 10° SSW visible
25 Nov - 17:21:18 10° S 17:23:39 14° SSE 17:26:01 10° ESE daylight
25 Nov - 19:00:26 10° SW 19:04:17 30° SSE 19:08:08 10° ESE daylight
25 Nov - 20:41:12 10° WSW 20:45:11 34° S 20:49:12 10° ESE daylight
25 Nov - 22:22:42 10° WSW 22:25:58 20° SSW 22:29:16 10° SSE daylight
26 Nov - 17:36:34 10° SSW 17:39:48 20° SSE 17:43:05 10° ESE daylight
26 Nov - 19:16:37 10° WSW 19:20:35 34° S 19:24:36 10° ESE daylight
26 Nov - 20:57:40 10° WSW 21:01:31 30° SSW 21:05:23 10° SE daylight
26 Nov - 22:39:46 10° WSW 22:42:08 14° SSW 22:44:31 10° S daylight
27 Nov - 16:14:19 10° SSE 16:15:34 11° SE 16:16:48 10° SE daylight
27 Nov - 17:52:21 10° SW 17:56:03 26° SSE 17:59:46 10° ESE daylight
27 Nov - 19:32:55 10° WSW 19:36:56 35° S 19:40:58 10° ESE daylight
27 Nov - 21:14:14 10° WSW 21:17:47 24° SSW 21:21:21 10° SSE daylight
28 Nov - 16:28:49 10° S 16:31:39 17° SSE 16:34:30 10° ESE daylight
28 Nov - 18:08:26 10° SW 18:12:21 32° S 18:16:17 10° ESE daylight
28 Nov - 19:49:19 10° WSW 19:53:17 32° S 19:57:14 10° SE daylight
28 Nov - 21:31:02 10° WSW 21:33:59 18° SSW 21:36:57 10° SSE daylight
29 Nov - 16:44:22 10° SSW 16:47:51 23° SSE 16:51:20 10° ESE daylight
29 Nov - 18:24:40 10° WSW 18:28:41 35° S 18:32:42 10° ESE daylight
29 Nov - 20:05:50 10° WSW 20:09:35 27° SSW 20:13:20 10° SE daylight
29 Nov - 21:48:30 10° WSW 21:50:07 12° SW 21:51:43 10° SSW daylight
